Location: Del Amo
(33.8464°N, 118.2104°W)
Time: 03:24:48
(UTC+00:00)

S-56A Canister/Altair - Pass Details

Date: 16 September 2024
Orbit: 636 x 2487 km, 38.9° (Epoch: 05 October)

Event Time Altitude Azimuth Distance (km) Brightness Sun altitude
Rises 09:27:05 0° 284° (WNW) 4,863 - -46.9°
Reaches altitude 10° 09:30:35 10° 273° (W) 4,138 - -46.4°
Maximum altitude 09:39:47 28° 220° (SW) 3,433 - -45.2°
Drops below altitude 10° 09:51:03 10° 169° (S) 5,083 - -43.6°
Exits shadow 09:55:36 - 160° (SSE) 6,052 11.9 -42.9°
Sets 09:56:02 0° 159° (SSE) 6,146 12.0 -42.8°
